Location: Neu-Ulm
(48.3873°N, 10.0192°E)
Time: 01:41:22
(UTC+01:00)

Envisat - Visible Passes

Search period start: 22 January 2018 00:00
Search period end: 01 February 2018 00:00
Orbit: 764 x 766 km, 98.2° (Epoch: 21 January)

Date Brightness Start Highest point End Pass type
(mag) Time Alt. Az. Time Alt. Az. Time Alt. Az.
22 Jan 6.3 07:13:07 10° ENE 07:14:25 11° E 07:15:42 10° E visible
22 Jan 4.0 18:33:12 23° ENE 18:33:53 23° ENE 18:37:51 10° N visible
22 Jan 3.7 20:13:23 50° WNW 20:13:23 50° WNW 20:17:34 10° NNW visible
23 Jan 4.7 17:55:47 11° ENE 17:57:39 13° NE 17:59:48 10° NNE visible
23 Jan 2.8 19:35:58 71° ENE 19:35:58 71° ENE 19:40:53 10° N visible
23 Jan 5.6 21:16:09 17° WNW 21:16:09 17° WNW 21:18:40 10° NW visible
24 Jan 3.5 18:58:32 34° E 18:59:15 36° ENE 19:03:52 10° N visible
24 Jan 4.5 20:38:43 34° W 20:38:43 34° W 20:42:55 10° NNW visible
25 Jan 4.3 18:21:06 16° E 18:22:53 20° ENE 18:26:27 10° NNE visible
25 Jan 3.1 20:01:17 71° WSW 20:01:23 71° WSW 20:06:29 10° NNW visible
26 Jan 4.8 17:45:51 10° ENE 17:46:42 10° NE 17:47:34 10° NE visible
26 Jan 3.0 19:23:50 51° ESE 19:24:42 58° ENE 19:29:42 10° N visible
26 Jan 5.2 21:04:01 21° W 21:04:06 21° W 21:07:56 10° NW visible
27 Jan 3.7 18:46:23 24° E 18:48:12 30° ENE 18:52:35 10° N visible
27 Jan 4.0 20:26:35 41° WSW 20:27:04 42° W 20:31:55 10° NNW visible
28 Jan 4.5 18:08:56 10° E 18:11:54 16° ENE 18:14:58 10° NNE visible
28 Jan 2.9 19:49:07 56° S 19:50:15 87° WSW 19:55:22 10° NNW visible
28 Jan 5.8 21:29:18 12° W 21:30:02 13° W 21:32:12 10° WNW visible
29 Jan 3.2 19:11:38 31° ESE 19:13:36 47° ENE 19:18:29 10° N visible
29 Jan 4.9 20:51:49 24° WSW 20:52:51 26° W 20:57:06 10° NW visible
30 Jan 6.2 07:15:52 10° ENE 07:17:49 12° E 07:19:45 10° ESE visible
30 Jan 4.0 18:34:10 15° ESE 18:37:10 25° ENE 18:41:15 10° N visible
30 Jan 3.7 20:14:21 39° SSW 20:15:53 52° W 20:20:53 10° NNW visible
31 Jan 4.6 17:58:28 10° E 18:00:55 14° NE 18:03:22 10° NNE visible
31 Jan 2.8 19:36:52 34° SSE 19:39:07 77° ENE 19:44:14 10° NNW visible
31 Jan 5.6 21:17:03 14° WSW 21:18:44 16° W 21:21:48 10° NW visible
